Regional Weather Roundup
Issued by NWS

Home | Current Version | Previous Version | Graphics & Text | Print | Product List | Glossary On
Versions: 1 2 3 4 5 6 7 8 9 10 11 12 13 14 15 16 17 18 19 20 21 22 23 24 25 26 27 28 29 30 31 32 33 34 35 36 37 38 39 40 41 42 43 44 45 46 47 48 49 50
000
ASUS43 KDTX 222010
RWRMI
MICHIGAN HOURLY REGIONAL WEATHER ROUNDUP
NATIONAL WEATHER SERVICE DETROIT/PONTIAC MI
400 PM EDT MON SEP 22 2014

NOTE: "FAIR" INDICATES FEW OR NO CLOUDS BELOW 12,000 FEET WITH NO
SIGNIFICANT WEATHER AND/OR OBSTRUCTION TO VISIBILITY.

MIZ047>049-052>055-059>063-066>070-074>076-081>083-222100-
SOUTHEAST LOWER MICHIGAN

CITY           SKY/WX    TMP DP  RH WIND       PRES   REMARKS
ADRIAN         SUNNY     62  40  44 NW13      30.21S
ALMA           MOSUNNY   62  43  48 W8G16     30.20S
ANN ARBOR      SUNNY     62  41  46 NW9       30.19F
BAD AXE        SUNNY     58  44  60 W10G16    30.17S
CARO           SUNNY     60  44  55 W6        30.17F
DETROIT CITY   SUNNY     62  41  46 W8        30.19S
DETROIT        MOSUNNY   61  41  47 W9        30.20S
FLINT          SUNNY     63  42  46 NW13      30.19F
GROSSE ILE     SUNNY     61  43  51 W7        30.18F
HILLSDALE      SUNNY     62  39  42 NW9       30.21S
HOWELL         SUNNY     59  40  49 N3        30.20S

CITY           SKY/WX    TMP DP  RH WIND       PRES   REMARKS
JACKSON        SUNNY     62  42  47 VRB6      30.21S
LAMBERTVILLE   SUNNY     63  41  45 NW9       30.20S
LANSING        SUNNY     62  43  49 NW8       30.21F
LAPEER         FAIR      59  41  52 W8        30.18F
MASON          SUNNY     60  43  52 NW8       30.21S
MONROE         SUNNY     63  43  48 NW10      30.18F
MT. CLEMENS    MOSUNNY   60  39  46 W7        30.16S
PONTIAC        MOSUNNY   59  40  49 NW14      30.18S
PORT HOPE        N/A     58  40  51 W8        30.14F
PORT HURON     SUNNY     57  43  58 NW7       30.18S
TRI CITIES     MOSUNNY   63  45  51 W14       30.19S
TROY           SUNNY     62  37  39 W8        30.20S
SAGINAW HB     SUNNY     63  43  48 NW9G18    30.17F
$$
MIZ043>046-050>051-056>058-064>065-071>073-077>080-222100-
SOUTHWEST LOWER MICHIGAN

CITY           SKY/WX    TMP DP  RH WIND       PRES   REMARKS
BATTLE CREEK   SUNNY     63  43  48 NW13      30.23F
BENTON HARBOR  MOSUNNY   57  47  69 W7        30.26F
BIG RAPIDS     SUNNY     62  47  58 W8G17     30.19S
COLDWATER      SUNNY     63  43  47 NW9       30.21F
FREMONT        FAIR      61  43  50 W6        30.21F
HOLLAND        SUNNY     61  47  59 W9        30.25F
GRAND RAPIDS   PTSUNNY   62  47  57 W10       30.22F
IONIA          FAIR      62  44  51 NW12      30.20F
KALAMAZOO      MOSUNNY   63  44  50 N8        30.23F
LUDINGTON      SUNNY     57  49  73 SW12      30.22S
MARSHALL       SUNNY     62  43  49 NW10      30.21F
MOUNT PLEASANT MOSUNNY   63  44  50 W9        30.18F
MUSKEGON       MOSUNNY   60  47  61 W13       30.24F
SOUTH HAVEN    SUNNY     59  48  65 NW6       30.26S
$$
MIZ016>042-222100-
NORTHERN LOWER MICHIGAN

CITY           SKY/WX    TMP DP  RH WIND       PRES   REMARKS
ALPENA         PTSUNNY   62  44  51 W12       30.12S
BEAVER ISLAND  SUNNY     60  52  72 SW16G22   30.13S
BELLAIRE       SUNNY     62  45  54 SW8       30.16S
CADILLAC       MOSUNNY   61  46  58 W10G16    30.17F
CHARLEVOIX     SUNNY     61  49  65 SW14G25   30.17S
FRANKFORT      SUNNY     58  49  70 SW9       30.19F
GAYLORD        MOSUNNY   59  44  57 W15G21    30.14F
GRAYLING       MOSUNNY   61  44  52 NW10G18   30.16S
HARBOR SPRINGS SUNNY     61  49  65 W12G17    30.14S
HOUGHTON LAKE  MOSUNNY   60  46  59 W7        30.16F
MANISTEE       SUNNY     59  45  58 W9        30.20F
OSCODA         PTSUNNY   63  43  48 W10       30.13S
PELLSTON       SUNNY     60  48  64 W10       30.13S
TRAVERSE CITY  MOSUNNY   64  43  46 W15       30.15F
$$
MIZ007>008-015-222100-
EASTERN UPPER MICHIGAN

CITY           SKY/WX    TMP DP  RH WIND       PRES   REMARKS
KINROSS        CLOUDY    59  48  67 SW10G17   30.09S
MACKINAC ISLAN CLOUDY    57  51  78 SW13G22   30.12R
NEWBERRY       MOSUNNY   63  46  54 W18G25    30.10S
S. S. MARIE    PTSUNNY   59  46  62 W9        30.09S
MUNISING         N/A     65  49  56 NE3       30.10S
$$
MIZ004>006-011>014-085-222100-
CENTRAL UPPER MICHIGAN

CITY           SKY/WX    TMP DP  RH WIND       PRES   REMARKS
MANISTIQUE     MOSUNNY   63  53  68 S8        30.10S
ESCANABA       SUNNY     68  46  45 NW10G20   30.11F
MENOMINEE      MOSUNNY   66  46  48 W12       30.13F
SAWYER-GWINN   MOSUNNY   66  45  45 W10G18    30.10F
$$
MIZ001>003-009>011-084-222100-
WESTERN UPPER MICHIGAN

CITY           SKY/WX    TMP DP  RH WIND       PRES   REMARKS
IRON MOUNTAIN  MOSUNNY   67  47  48 W10       30.12F
HOUGHTON       SUNNY     64  46  52 W22G29    30.08F
COPPER HARBOR    N/A     65  48  54 NW10G25   30.05S
IRONWOOD       MOSUNNY   64  52  63 SW14      30.11F
$$

ABBREVIATIONS USED IN REMARKS
   TC - TEMPERATURE IN CELSIUS
  WCI - WIND CHILL INDEX
   HX - HEAT INDEX
  VSB - VISIBILITY



USA.gov is the U.S. government's official web portal to all federal, state and local government web resources and services.